Big Rapids, MI

10:51 AM EST on February 08, 2016 (GMT -0500)
Roben-Hood

Weather History for KRQB - January, 2013

Change the Weather History Date:

Monday, January 7, 2013

  Actual Average Record
Temperature  
Mean Temperature 28 °F -  
Max Temperature 36 °F 26 °F 57 °F (2008)
Min Temperature 21 °F 9 °F -16 °F (1988)
Degree Days  
Heating Degree Days 36    
Moisture  
Dew Point 23 °F    
Average Humidity 72    
Maximum Humidity 89    
Minimum Humidity 58    
Precipitation  
Precipitation 0.00 in - - ()
Sea Level Pressure  
Sea Level Pressure 30.13 in    
Wind  
Wind Speed 6 mph (SSW)    
Max Wind Speed 18 mph    
Max Gust Speed 26 mph    
Visibility 10 miles    
Events      
Averages and records for this station are not official NWS values.
T = Trace of Precipitation, MM = Missing Value Source: NWS Daily Summary

Daily Weather History Graph

Daily Weather History Graph

Search for Another Location

Airport or City:

Trip Planner

Search our weather history database for the weather conditions in past years. The results will help you decide how hot, cold, wet, or windy it might be!

Date:

Astronomy

Jan. 07, 2013 Rise Set
Actual Time 8:15 AM EST 5:21 PM EST
Civil Twilight 7:42 AM EST 5:54 PM EST
Nautical Twilight 7:07 AM EST 6:30 PM EST
Astronomical Twilight 6:32 AM EST 7:04 PM EST
Moon 3:36 AM EST (1/7) 1:33 PM EST (1/7)
Length of Visible Light 10h 11m
Length of Day
9h 06m
Waning Crescent, 23% of the Moon is Illuminated
Jan 7
Waning Crescent
Jan 11
New
Jan 18
First Quarter
Jan 26
Full
Feb 3
Last Quarter

Hourly Weather History & Observations

Time (EST) Temp. Windchill Dew Point Humidity Pressure Visibility Wind Dir Wind Speed Gust Speed Precip Events Conditions
12:34 AM 29.3 °F 25.6 °F 22.8 °F 77% 30.24 in 10.0 mi WSW 3.5 mph - N/A   Overcast
12:54 AM 29.3 °F - 22.1 °F 75% 30.23 in 10.0 mi Calm Calm - N/A   Overcast
1:14 AM 28.6 °F - 21.7 °F 76% 30.23 in 10.0 mi Calm Calm - N/A   Overcast
1:34 AM 28.4 °F - 21.6 °F 76% 30.23 in 10.0 mi Calm Calm - N/A   Overcast
1:54 AM 28.6 °F - 21.2 °F 74% 30.24 in 10.0 mi Calm Calm - N/A   Overcast
2:34 AM 25.5 °F - 20.7 °F 82% 30.24 in 10.0 mi Calm Calm - N/A   Scattered Clouds
2:54 AM 21.7 °F - 19.0 °F 89% 30.24 in 10.0 mi Calm Calm - N/A   Overcast
3:14 AM 25.5 °F - 21.4 °F 84% 30.24 in 10.0 mi Calm Calm - N/A   Overcast
3:34 AM 25.9 °F - 20.7 °F 81% 30.24 in 10.0 mi Calm Calm - N/A   Overcast
3:54 AM 26.1 °F - 20.8 °F 81% 30.23 in 10.0 mi Calm Calm - N/A   Overcast
4:14 AM 26.4 °F - 20.8 °F 79% 30.23 in 10.0 mi Calm Calm - N/A   Overcast
4:34 AM 27.3 °F 23.4 °F 21.0 °F 77% 30.22 in 10.0 mi South 3.5 mph - N/A   Overcast
4:54 AM 26.6 °F 22.6 °F 20.7 °F 78% 30.21 in 10.0 mi South 3.5 mph - N/A   Overcast
5:14 AM 25.2 °F - 20.8 °F 84% 30.22 in 10.0 mi Calm Calm - N/A   Overcast
5:35 AM 24.6 °F - 20.1 °F 83% 30.22 in 10.0 mi Calm Calm - N/A   Overcast
5:54 AM 25.7 °F - 21.0 °F 82% 30.21 in 10.0 mi Calm Calm - N/A   Overcast
6:14 AM 23.7 °F - 19.6 °F 84% 30.21 in 10.0 mi Calm Calm - N/A   Overcast
6:35 AM 25.5 °F - 22.3 °F 88% 30.21 in 10.0 mi Calm Calm - N/A   Overcast
6:54 AM 29.3 °F 22.3 °F 22.6 °F 76% 30.21 in 10.0 mi SSW 6.9 mph - N/A   Overcast
7:35 AM 30.6 °F 23.8 °F 23.2 °F 74% 30.21 in 10.0 mi SSW 6.9 mph - N/A   Overcast
7:54 AM 30.7 °F 23.3 °F 23.9 °F 76% 30.21 in 10.0 mi SSW 8.1 mph - N/A   Overcast
8:14 AM 30.7 °F 23.3 °F 23.9 °F 76% 30.21 in 10.0 mi SSW 8.1 mph - N/A   Overcast
8:34 AM 31.1 °F 23.7 °F 23.9 °F 75% 30.21 in 10.0 mi SSW 8.1 mph 16.1 mph N/A   Overcast
8:54 AM 31.3 °F 23.9 °F 23.9 °F 74% 30.21 in 10.0 mi SSW 8.1 mph - N/A   Overcast
9:15 AM 31.1 °F 22.4 °F 23.7 °F 74% 30.21 in 10.0 mi SSW 10.4 mph 17.3 mph N/A   Mostly Cloudy
9:34 AM 31.8 °F 23.9 °F 23.9 °F 73% 30.21 in 10.0 mi SSW 9.2 mph 18.4 mph N/A   Mostly Cloudy
9:54 AM 32.0 °F 22.1 °F 23.9 °F 72% 30.20 in 10.0 mi SSW 13.8 mph 20.7 mph N/A   Overcast
10:14 AM 32.0 °F 22.1 °F 24.3 °F 73% 30.19 in 10.0 mi SSW 13.8 mph 21.9 mph N/A   Scattered Clouds
10:34 AM 32.2 °F 22.7 °F 23.9 °F 72% 30.18 in 10.0 mi South 12.7 mph 23.0 mph N/A   Scattered Clouds
10:55 AM 32.2 °F 20.7 °F 24.3 °F 73% 30.17 in 10.0 mi SSW 18.4 mph 25.3 mph N/A   Mostly Cloudy
11:14 AM 32.0 °F 21.2 °F 24.1 °F 73% 30.15 in 10.0 mi SSW 16.1 mph 23.0 mph N/A   Mostly Cloudy
11:34 AM 32.0 °F 23.0 °F 24.4 °F 74% 30.16 in 10.0 mi SSW 11.5 mph 20.7 mph N/A   Overcast
11:54 AM 32.4 °F 23.0 °F 24.4 °F 73% 30.16 in 10.0 mi SSW 12.7 mph 18.4 mph N/A   Overcast
12:14 PM 32.2 °F 23.8 °F 24.4 °F 73% 30.15 in 10.0 mi SSW 10.4 mph 19.6 mph N/A   Overcast
12:34 PM 32.9 °F 25.9 °F 24.6 °F 72% 30.14 in 10.0 mi SSW 8.1 mph - N/A   Mostly Cloudy
12:54 PM 34.7 °F 27.5 °F 24.4 °F 66% 30.12 in 10.0 mi SSW 9.2 mph - N/A   Scattered Clouds
1:14 PM 35.4 °F 26.4 °F 23.7 °F 62% 30.11 in 10.0 mi South 13.8 mph 20.7 mph N/A   Scattered Clouds
1:34 PM 35.4 °F 27.3 °F 23.9 °F 63% 30.10 in 10.0 mi South 11.5 mph - N/A   Clear
2:14 PM 36.1 °F 27.7 °F 23.7 °F 61% 30.07 in 10.0 mi South 12.7 mph 17.3 mph N/A   Clear
2:35 PM 36.7 °F 27.2 °F 23.2 °F 58% 30.06 in 10.0 mi SSW 16.1 mph 23.0 mph N/A   Clear
2:54 PM 36.1 °F 25.9 °F 22.6 °F 58% 30.06 in 10.0 mi SSW 18.4 mph 26.5 mph N/A   Clear
3:14 PM 36.3 °F 26.4 °F 22.8 °F 58% 30.06 in 10.0 mi SW 17.3 mph 24.2 mph N/A   Clear
3:34 PM 36.5 °F 28.7 °F 22.8 °F 58% 30.06 in 10.0 mi SSW 11.5 mph 21.9 mph N/A   Clear
3:54 PM 36.0 °F 25.6 °F 22.3 °F 58% 30.04 in 10.0 mi SW 18.4 mph 24.2 mph N/A   Clear
4:15 PM 35.6 °F 27.5 °F 22.1 °F 58% 30.03 in 10.0 mi SSW 11.5 mph 25.3 mph N/A   Clear
4:34 PM 35.1 °F 25.9 °F 22.3 °F 60% 30.02 in 10.0 mi SSW 13.8 mph 21.9 mph N/A   Clear
4:55 PM 34.7 °F 24.3 °F 22.5 °F 61% 30.03 in 10.0 mi SW 17.3 mph 21.9 mph N/A   Clear
5:14 PM 34.7 °F 26.4 °F 22.5 °F 61% 30.03 in 10.0 mi SSW 11.5 mph - N/A   Clear
5:34 PM 34.0 °F 24.6 °F 22.1 °F 62% 30.03 in 10.0 mi SSW 13.8 mph 19.6 mph N/A   Clear
6:14 PM 33.3 °F 25.7 °F 22.1 °F 64% 30.03 in 10.0 mi SW 9.2 mph 19.6 mph N/A   Clear
6:34 PM 33.1 °F 23.9 °F 22.5 °F 65% 30.03 in 10.0 mi SW 12.7 mph 20.7 mph N/A   Clear
6:55 PM 33.3 °F 24.1 °F 22.5 °F 65% 30.02 in 10.0 mi SSW 12.7 mph 23.0 mph N/A   Clear
7:14 PM 33.1 °F 22.6 °F 22.5 °F 65% 30.02 in 10.0 mi SW 16.1 mph 21.9 mph N/A   Clear
7:34 PM 33.3 °F 22.5 °F 23.0 °F 66% 30.01 in 10.0 mi SSW 17.3 mph 24.2 mph N/A   Clear
7:55 PM 33.1 °F 23.9 °F 23.7 °F 68% 30.03 in 10.0 mi SW 12.7 mph 19.6 mph N/A   Clear
8:14 PM 33.1 °F 24.4 °F 24.1 °F 70% 30.01 in 10.0 mi SW 11.5 mph 18.4 mph N/A   Clear
8:34 PM 33.3 °F 25.7 °F 24.8 °F 71% 30.01 in 10.0 mi SSW 9.2 mph 18.4 mph N/A   Clear
8:55 PM 33.1 °F 24.4 °F 25.5 °F 74% 30.01 in 10.0 mi SSW 11.5 mph 19.6 mph N/A   Clear
9:14 PM 33.1 °F 26.1 °F 25.7 °F 74% 30.01 in 10.0 mi SW 8.1 mph - N/A   Clear
9:34 PM 32.9 °F 25.9 °F 26.1 °F 76% 30.02 in 10.0 mi SSW 8.1 mph - N/A   Clear
9:55 PM 32.5 °F 26.2 °F 26.1 °F 77% 30.02 in 10.0 mi South 6.9 mph - N/A   Clear
10:14 PM 32.2 °F 25.0 °F 26.2 °F 79% 30.02 in 10.0 mi SSW 8.1 mph - N/A   Clear
10:34 PM 32.0 °F 25.6 °F 26.2 °F 79% 30.02 in 10.0 mi South 6.9 mph - N/A   Clear
10:55 PM 32.0 °F 25.6 °F 26.2 °F 79% 30.03 in 10.0 mi South 6.9 mph - N/A   Clear
11:14 PM 32.0 °F 26.4 °F 26.1 °F 79% 30.03 in 10.0 mi SSW 5.8 mph - N/A   Clear
11:54 PM 31.6 °F 26.0 °F 26.4 °F 81% 30.03 in 10.0 mi SSW 5.8 mph - N/A   Clear